Location: Newark
(34.6283°N, 36.0776°E)
Time: 14:59:48
(UTC+00:00)

A-11 Canister half - Pass Details

Date: 22 September 2019
Orbit: 1527 x 1682 km, 47.3° (Epoch: 17 October)

Event Time Altitude Azimuth Distance (km) Brightness Sun altitude
Rises 05:49:01 0° 301° (WNW) 4,763 11.0 28.5°
Reaches altitude 10° 05:52:13 10° 307° (NW) 3,798 10.6 29.1°
Maximum altitude 06:01:39 52° 22° (NNE) 1,952 10.0 30.9°
Drops below altitude 10° 06:11:20 10° 97° (E) 3,907 12.4 32.7°
Sets 06:14:39 0° 103° (ESE) 4,907 12.7 33.3°
